Mitchell, SD

4:52 AM CST on November 15, 2019 (GMT -0600)
Mitchell Municipal

Weather History for KMHE - September, 2019

Change the Weather History Date:

Monday, September 23, 2019

  Actual Average Record
Temperature  
Mean Temperature 66 °F 59 °F  
Max Temperature 81 °F 73 °F 104 °F (1935)
Min Temperature 50 °F 46 °F 27 °F (2012)
Degree Days  
Heating Degree Days 0 7  
Month to date heating degree days 6 84  
Since 1 July heating degree days 15 101  
Cooling Degree Days 1 1  
Month to date cooling degree days 139 66  
Year to date cooling degree days 933 811  
Growing Degree Days 15 (Base 50)    
Moisture  
Dew Point 51 °F    
Average Humidity 61    
Maximum Humidity 89    
Minimum Humidity 33    
Precipitation  
Precipitation 0.00 in 0.08 in 1.14 in (2017)
Month to date precipitation 7.61 1.81  
Year to date precipitation 32.65 18.16  
Snow  
Snow 0.00 in - 0.00 in ()
Month to date snowfall 0.0  
Since 1 July snowfall 0.0  
Since 1 September snowfall 0.0  
Snow Depth 0.00 in    
Sea Level Pressure  
Sea Level Pressure 29.96 in    
Wind  
Wind Speed 6 mph (SSE)    
Max Wind Speed 9 mph    
Max Gust Speed -    
Visibility 10 miles    
Events      
T = Trace of Precipitation, MM = Missing Value Source: NWS Daily Summary

Daily Weather History Graph

Daily Weather History Graph

Search for Another Location

Airport or City:

Astronomy

Sep. 23, 2019 Rise Set
Actual Time 7:20 AM CDT 7:28 PM CDT
Civil Twilight 6:51 AM CDT 7:56 PM CDT
Nautical Twilight 6:17 AM CDT 8:30 PM CDT
Astronomical Twilight 5:43 AM CDT 9:04 PM CDT
Moon 12:52 AM CDT (9/23) 4:34 PM CDT (9/23)
Length of Visible Light 13h 05m
Length of Day
12h 07m
Waning Crescent, 33% of the Moon is Illuminated
Sep 23
Waning Crescent
Sep 28
New
Oct 5
First Quarter
Oct 13
Full
Oct 21
Last Quarter

Hourly Weather History & Observations

Time (CDT) Temp. Dew Point Humidity Pressure Visibility Wind Dir Wind Speed Gust Speed Precip Events Conditions
12:53 AM 57.0 °F 48.0 °F 72% 29.98 in 10.0 mi SSW 6.9 mph - N/A   Clear
1:53 AM 55.9 °F 48.9 °F 77% 29.98 in 10.0 mi SSW 8.1 mph - N/A   Clear
2:53 AM 55.0 °F 48.9 °F 80% 30.00 in 10.0 mi SSW 8.1 mph - N/A   Clear
3:53 AM 52.0 °F 46.9 °F 83% 30.00 in 10.0 mi Calm Calm - N/A   Clear
4:53 AM 52.0 °F 48.0 °F 86% 30.00 in 10.0 mi South 4.6 mph - N/A   Clear
5:53 AM 51.1 °F 46.9 °F 86% 29.99 in 10.0 mi Calm Calm - N/A   Clear
6:53 AM 50.0 °F 46.0 °F 86% 30.01 in 10.0 mi SE 3.5 mph - N/A   Clear
7:53 AM 51.1 °F 48.0 °F 89% 30.01 in 10.0 mi SE 4.6 mph - N/A   Clear
8:53 AM 55.9 °F 50.0 °F 80% 30.02 in 10.0 mi SE 3.5 mph - N/A   Clear
9:53 AM 62.1 °F 52.0 °F 70% 30.03 in 10.0 mi SSW 6.9 mph - N/A   Clear
10:53 AM 66.9 °F 54.0 °F 63% 30.02 in 10.0 mi Variable 4.6 mph - N/A   Clear
11:53 AM 72.0 °F 54.0 °F 53% 30.01 in 10.0 mi SSE 4.6 mph - N/A   Clear
12:53 PM 75.9 °F 48.9 °F 38% 29.99 in 10.0 mi SSE 6.9 mph - N/A   Clear
1:53 PM 78.1 °F 48.9 °F 36% 29.96 in 10.0 mi ESE 9.2 mph - N/A   Clear
2:53 PM 80.1 °F 48.0 °F 32% 29.94 in 10.0 mi SSE 6.9 mph - N/A   Clear
3:53 PM 80.1 °F 51.1 °F 36% 29.93 in 10.0 mi SE 9.2 mph - N/A   Clear
4:53 PM 80.1 °F 52.0 °F 38% 29.92 in 10.0 mi SSE 9.2 mph - N/A   Clear
5:53 PM 79.0 °F 54.0 °F 42% 29.91 in 10.0 mi SE 6.9 mph - N/A   Clear
6:53 PM 73.9 °F 55.9 °F 53% 29.89 in 10.0 mi SE 5.8 mph - N/A   Clear
7:53 PM 68.0 °F 55.9 °F 65% 29.89 in 10.0 mi SE 4.6 mph - N/A   Clear
8:53 PM 64.9 °F 55.0 °F 70% 29.88 in 10.0 mi SE 4.6 mph - N/A   Clear
9:53 PM 63.0 °F 55.9 °F 78% 29.86 in 10.0 mi ESE 8.1 mph - N/A   Clear
10:53 PM 63.0 °F 55.9 °F 78% 29.86 in 10.0 mi SE 5.8 mph - N/A   Clear
11:53 PM 62.1 °F 55.9 °F 80% 29.84 in 10.0 mi SSE 4.6 mph - N/A   Clear